This is the latest recevied weather packets stored in our database for station/object N0QV. If no packets are shown the sender has not sent any weather packets the latest 10 day(s).
| Time | Temp. | Humidity | Pressure | Rain* | Wind** | Luminosity | Snow |
|---|---|---|---|---|---|---|---|
| 1777654846 | 11.11° C | 37% | 1019.2 hPa | 0 mm | - | 983 W/m² | - |
| 1777654543 | 11.11° C | 38% | 1019.2 hPa | 0 mm | - | 372 W/m² | - |
| 1777654241 | 11.11° C | 40% | 1019.2 hPa | 0 mm | - | 891 W/m² | - |
| 1777653938 | 11.11° C | 40% | 1019.3 hPa | 0 mm | - | 723 W/m² | - |
| 1777653635 | 10° C | 40% | 1019.3 hPa | 0 mm | - | 347 W/m² | - |
| 1777653331 | 11.11° C | 38% | 1019.2 hPa | 0 mm | - | 218 W/m² | - |
| 1777653028 | 11.11° C | 37% | 1019.2 hPa | 0 mm | - | 808 W/m² | - |
| 1777652725 | 11.11° C | 39% | 1019.1 hPa | 0 mm | - | 691 W/m² | - |
| 1777652421 | 11.11° C | 41% | 1019 hPa | 0 mm | - | 711 W/m² | - |
| 1777652119 | 10.56° C | 43% | 1018.9 hPa | 0 mm | - | 511 W/m² | - |
| 1777651815 | 10.56° C | 41% | 1019 hPa | 0 mm | - | 433 W/m² | - |
| 1777651512 | 10.56° C | 40% | 1019.1 hPa | 0 mm | - | 331 W/m² | - |
| 1777651209 | 10.56° C | 39% | 1019.1 hPa | 0 mm | - | 667 W/m² | - |
| 1777650906 | 11.11° C | 39% | 1019.2 hPa | 0 mm | - | 413 W/m² | - |
| 1777650603 | 11.67° C | 39% | 1019.2 hPa | 0 mm | - | 698 W/m² | - |
| 1777650300 | 11.11° C | 39% | 1019.1 hPa | 0 mm | - | 880 W/m² | - |
| 1777649997 | 10.56° C | 40% | 1019.1 hPa | 0 mm | - | 825 W/m² | - |
| 1777649695 | 10.56° C | 42% | 1019.4 hPa | 0 mm | - | 559 W/m² | - |
| 1777649390 | 10.56° C | 40% | 1018.8 hPa | 0 mm | - | 598 W/m² | - |
| 1777649088 | 10° C | 43% | 1019 hPa | 0 mm | - | 744 W/m² | - |
| 1777648785 | 10° C | 45% | 1019.2 hPa | 0 mm | - | 472 W/m² | - |
| 1777648482 | 9.44° C | 44% | 1019.1 hPa | 0 mm | - | 685 W/m² | - |
| 1777648178 | 9.44° C | 46% | 1019 hPa | 0 mm | - | 456 W/m² | - |
| 1777647874 | 10° C | 45% | 1019.1 hPa | 0 mm | - | 511 W/m² | - |
| 1777647570 | 9.44° C | 47% | 1018.9 hPa | 0 mm | - | 689 W/m² | - |
* Rain latest hour (hover to see other rain measurements)
** Current wind speed in m/s (hover to see current wind gust speed)